Location: Casilda
(33.0440°S, 61.1680°W)
Time: 14:31:49
(UTC-03:00)

ISS - Pass Details

Date: 28 June 2017
Orbit: 401 x 408 km, 51.6° (Epoch: 28 June)

Event Time Altitude Azimuth Distance (km) Brightness Sun altitude
Rises 18:40:49 0° 333° (NNW) 2,321 0.9 -7.1°
Reaches altitude 10° 18:43:00 10° 342° (NNW) 1,468 -0.4 -7.5°
Maximum altitude 18:46:01 34° 49° (NE) 692 -2.9 -8.1°
Enters shadow 18:48:48 12° 114° (ESE) 1,374 -1.8 -8.6°
